When you browse on this site, cookies collect data to enhance your experience and personalize the content and advertising you see.
Visit our Privacy Policy to learn more. By continuing to use the site, you agree to this use of cookies and data.
  • In Austria
  • List of Countries
  • For 7 days
  • Water Temperature
  • Weather Map
  • News
  • Weather Widgets
  • user-avatar
    Login

    Hourly Weather Innsbruck

    Today, 26 January, Sunday

    Time Temperature Precipitation Wind Pressure Humidity
    00:00 -6°C° 0 mm 1 mps 594 mmHg 81%
    01:00 -6°C° 0 mm 1 mps 594 mmHg 82%
    02:00 -4°C° 0 mm 1 mps 594 mmHg 82%
    03:00 -4°C° 0 mm 1 mps 593 mmHg 82%
    04:00 -4°C° 0 mm 1 mps 593 mmHg 82%
    05:00 -4°C° 0 mm 1 mps 593 mmHg 83%
    06:00 -4°C° 0 mm 1 mps 593 mmHg 85%
    07:00 -4°C° 0 mm 1 mps 593 mmHg 86%
    08:00 -4°C° 0 mm 1 mps 594 mmHg 85%
    09:00 -3°C° 0 mm 1 mps 594 mmHg 85%
    10:00 -3°C° 0 mm 0 mps 594 mmHg 84%
    11:00 -3°C° 0.1 mm 0 mps 594 mmHg 84%
    12:00 -2°C° 0.1 mm 0 mps 594 mmHg 84%
    13:00 -2°C° 0.1 mm 0 mps 594 mmHg 83%
    14:00 -2°C° 0.1 mm 0 mps 594 mmHg 85%
    15:00 -2°C° 0.1 mm 0 mps 593 mmHg 86%
    16:00 -3°C° 0.1 mm 0 mps 593 mmHg 88%
    17:00 -4°C° 0 mm 0 mps 593 mmHg 88%
    18:00 -4°C° 0 mm 1 mps 592 mmHg 88%
    19:00 -6°C° 0 mm 1 mps 592 mmHg 88%
    20:00 -6°C° 0 mm 1 mps 592 mmHg 87%
    21:00 -7°C° 0 mm 1 mps 592 mmHg 85%
    22:00 -7°C° 0 mm 1 mps 592 mmHg 83%
    23:00 -7°C° 0 mm 1 mps 592 mmHg 83%

    Tomorrow, 27 January, Monday

    Time Temperature Precipitation Wind Pressure Humidity
    00:00 -7°C° 0 mm 1 mps 592 mmHg 82%
    01:00 -7°C° 0 mm 1 mps 592 mmHg 82%
    02:00 -7°C° 0 mm 1 mps 592 mmHg 81%
    03:00 -7°C° 0 mm 1 mps 592 mmHg 81%
    04:00 -7°C° 0 mm 1 mps 591 mmHg 80%
    05:00 -7°C° 0 mm 1 mps 592 mmHg 79%
    06:00 -7°C° 0 mm 1 mps 592 mmHg 78%
    07:00 -7°C° 0 mm 1 mps 592 mmHg 77%
    08:00 -6°C° 0 mm 1 mps 592 mmHg 74%
    09:00 -4°C° 0 mm 1 mps 593 mmHg 72%
    10:00 -3°C° 0 mm 1 mps 593 mmHg 70%
    11:00 -2°C° 0 mm 1 mps 593 mmHg 68%
    12:00 -1°C° 0 mm 1 mps 593 mmHg 67%
    13:00 0°C° 0 mm 1 mps 592 mmHg 66%
    14:00 -1°C° 0 mm 1 mps 592 mmHg 69%
    15:00 -3°C° 0 mm 2 mps 591 mmHg 72%
    16:00 -4°C° 0 mm 2 mps 591 mmHg 75%
    17:00 -5°C° 0 mm 2 mps 590 mmHg 75%
    18:00 -7°C° 0 mm 3 mps 590 mmHg 76%
    19:00 -8°C° 0 mm 3 mps 589 mmHg 77%
    20:00 -8°C° 0 mm 3 mps 589 mmHg 78%
    21:00 -8°C° 0 mm 3 mps 589 mmHg 79%
    22:00 -7°C° 0 mm 3 mps 589 mmHg 81%
    23:00 -7°C° 0 mm 3 mps 588 mmHg 81%

    Day after tomorrow, 28 January, Tuesday

    Time Temperature Precipitation Wind Pressure Humidity
    00:00 -8°C° 0 mm 3 mps 587 mmHg 82%
    01:00 -8°C° 0 mm 3 mps 587 mmHg 82%
    02:00 -8°C° 0.1 mm 3 mps 586 mmHg 81%
    03:00 -8°C° 0.1 mm 3 mps 586 mmHg 81%
    04:00 -8°C° 0.1 mm 3 mps 585 mmHg 80%
    05:00 -8°C° 0 mm 3 mps 585 mmHg 81%
    06:00 -8°C° 0 mm 3 mps 584 mmHg 82%
    07:00 -8°C° 0 mm 2 mps 584 mmHg 83%
    08:00 -7°C° 0.2 mm 2 mps 584 mmHg 83%
    09:00 -6°C° 0.2 mm 2 mps 584 mmHg 84%
    10:00 -5°C° 0.2 mm 2 mps 584 mmHg 84%
    11:00 -5°C° 0.6 mm 2 mps 583 mmHg 87%
    12:00 -3°C° 0.6 mm 1 mps 583 mmHg 89%
    13:00 -3°C° 0.6 mm 1 mps 582 mmHg 92%
    14:00 -6°C° 1.7 mm 2 mps 582 mmHg 88%
    15:00 -8°C° 1.7 mm 3 mps 582 mmHg 85%
    16:00 -10°C° 1.7 mm 4 mps 582 mmHg 81%
    17:00 -10°C° 0.2 mm 3 mps 583 mmHg 84%
    18:00 -12°C° 0.2 mm 3 mps 583 mmHg 86%
    19:00 -12°C° 0.2 mm 2 mps 583 mmHg 89%
    20:00 -13°C° 0 mm 2 mps 583 mmHg 87%
    21:00 -14°C° 0 mm 2 mps 583 mmHg 85%
    22:00 -15°C° 0 mm 2 mps 583 mmHg 83%
    23:00 -14°C° 0 mm 2 mps 583 mmHg 77%

    29 January, Wednesday

    Time Temperature Precipitation Wind Pressure Humidity
    00:00 -15°C° 0 mm 3 mps 583 mmHg 72%
    01:00 -15°C° 0 mm 3 mps 583 mmHg 66%
    02:00 -15°C° 0 mm 3 mps 583 mmHg 68%
    03:00 -14°C° 0 mm 3 mps 583 mmHg 71%
    04:00 -14°C° 0 mm 3 mps 584 mmHg 73%
    05:00 -14°C° 0.1 mm 3 mps 583 mmHg 76%
    06:00 -13°C° 0.1 mm 3 mps 583 mmHg 79%
    07:00 -12°C° 0.1 mm 2 mps 583 mmHg 82%
    08:00 -12°C° 0.7 mm 2 mps 584 mmHg 85%
    09:00 -10°C° 0.7 mm 2 mps 584 mmHg 88%
    10:00 -9°C° 0.7 mm 2 mps 585 mmHg 91%
    11:00 -9°C° 1 mm 2 mps 585 mmHg 88%
    12:00 -9°C° 1 mm 2 mps 586 mmHg 85%
    13:00 -9°C° 1 mm 2 mps 586 mmHg 81%
    14:00 -9°C° 0.4 mm 2 mps 586 mmHg 83%
    15:00 -8°C° 0.4 mm 1 mps 587 mmHg 85%
    16:00 -8°C° 0.4 mm 1 mps 587 mmHg 88%
    17:00 -9°C° 0.5 mm 1 mps 587 mmHg 90%
    18:00 -9°C° 0.5 mm 1 mps 587 mmHg 92%
    19:00 -10°C° 0.5 mm 1 mps 588 mmHg 94%
    20:00 -10°C° 0.6 mm 1 mps 588 mmHg 94%
    21:00 -10°C° 0.6 mm 1 mps 589 mmHg 94%
    22:00 -10°C° 0.6 mm 1 mps 589 mmHg 94%
    23:00 -10°C° 0.7 mm 1 mps 589 mmHg 94%

    30 January, Thursday

    Time Temperature Precipitation Wind Pressure Humidity
    00:00 -10°C° 0.7 mm 1 mps 589 mmHg 94%
    01:00 -10°C° 0.7 mm 1 mps 590 mmHg 95%
    02:00 -10°C° 0.4 mm 1 mps 590 mmHg 95%
    03:00 -10°C° 0.4 mm 1 mps 590 mmHg 95%
    04:00 -10°C° 0.4 mm 1 mps 590 mmHg 95%
    05:00 -11°C° 0.1 mm 1 mps 590 mmHg 94%
    06:00 -12°C° 0.1 mm 1 mps 590 mmHg 92%
    07:00 -14°C° 0.1 mm 2 mps 590 mmHg 91%
    08:00 -11°C° 0 mm 1 mps 591 mmHg 86%
    09:00 -10°C° 0 mm 1 mps 592 mmHg 80%
    10:00 -8°C° 0 mm 1 mps 592 mmHg 75%
    11:00 -7°C° 0 mm 1 mps 593 mmHg 70%
    12:00 -4°C° 0 mm 1 mps 593 mmHg 65%
    13:00 -3°C° 0 mm 1 mps 594 mmHg 60%
    14:00 -3°C° 0 mm 1 mps 593 mmHg 64%
    15:00 -3°C° 0 mm 1 mps 593 mmHg 67%
    16:00 -4°C° 0 mm 0 mps 592 mmHg 70%
    17:00 -4°C° 0 mm 1 mps 592 mmHg 65%
    18:00 -6°C° 0 mm 1 mps 592 mmHg 59%
    19:00 -8°C° 0 mm 2 mps 592 mmHg 53%
    20:00 -9°C° 0 mm 2 mps 592 mmHg 51%
    21:00 -9°C° 0 mm 2 mps 592 mmHg 50%
    22:00 -9°C° 0 mm 2 mps 592 mmHg 48%
    23:00 -8°C° 0 mm 2 mps 592 mmHg 48%

    31 January, Friday

    Time Temperature Precipitation Wind Pressure Humidity
    00:00 -8°C° 0 mm 2 mps 592 mmHg 48%
    01:00 -8°C° 0 mm 2 mps 592 mmHg 48%
    02:00 -8°C° 0 mm 2 mps 592 mmHg 48%
    03:00 -8°C° 0 mm 2 mps 592 mmHg 48%
    04:00 -8°C° 0 mm 2 mps 592 mmHg 48%
    05:00 -7°C° 0 mm 1 mps 592 mmHg 48%
    06:00 -7°C° 0 mm 1 mps 592 mmHg 48%
    07:00 -7°C° 0 mm 1 mps 592 mmHg 47%
    08:00 -4°C° 0 mm 1 mps 593 mmHg 52%
    09:00 -2°C° 0 mm 1 mps 594 mmHg 56%
    10:00 0°C° 0 mm 1 mps 595 mmHg 61%
    11:00 -1°C° 0 mm 0 mps 595 mmHg 68%
    12:00 0°C° 0 mm 0 mps 595 mmHg 76%
    13:00 0°C° 0 mm 0 mps 595 mmHg 83%
    14:00 0°C° 0 mm 0 mps 595 mmHg 80%
    15:00 -1°C° 0 mm 0 mps 595 mmHg 78%
    16:00 -1°C° 0 mm 0 mps 594 mmHg 76%
    17:00 -1°C° 0 mm 1 mps 594 mmHg 72%
    18:00 -3°C° 0 mm 1 mps 594 mmHg 68%
    19:00 -4°C° 0 mm 1 mps 594 mmHg 64%
    20:00 -4°C° 0 mm 1 mps 594 mmHg 65%
    21:00 -4°C° 0 mm 1 mps 594 mmHg 65%
    22:00 -4°C° 0 mm 1 mps 594 mmHg 66%
    23:00 -4°C° 0 mm 1 mps 594 mmHg 68%
    Show more